EW3197 Weather Reports


Display with metric or nautical units.
time (UTC)temp
F
wind
direction
speed
MPH
gust
MPH
rain 1hr
in
rain 24hr
in
rain mn
in
humidity
%
barometer
mb
20260904163704 76 307 3.0 12.0 0.00 0.00 0.00 65 1010.7
20260904163204 77 312 2.0 12.0 0.00 0.00 0.00 63 1010.7
20260904162704 77 260 2.0 9.0 0.00 0.00 0.00 66 1010.7
20260904162204 77 255 4.0 8.0 0.00 0.00 0.00 67 1010.7
20260904161704 77 177 2.0 8.0 0.00 0.00 0.00 67 1010.9
20260904161204 76 312 2.0 10.0 0.00 0.00 0.00 68 1011.1
20260904160203 76 305 2.0 3.0 0.00 0.00 0.00 69 1011.1
20260904155704 76 304 3.0 7.0 0.00 0.00 0.00 68 1011.0
20260904155204 75 325 2.0 5.0 0.00 0.00 0.00 69 1010.9
20260904154704 76 289 1.0 6.0 0.00 0.00 0.00 69 1011.1
20260904154204 76 348 3.0 9.0 0.00 0.00 0.00 70 1011.0
20260904153704 76 230 2.0 8.0 0.00 0.00 0.00 69 1011.4
20260904153204 76 302 4.0 8.0 0.00 0.00 0.00 70 1011.3
20260904152704 75 314 3.0 8.0 0.00 0.00 0.00 70 1011.2
20260904152204 75 252 2.0 8.0 0.00 0.00 0.00 71 1011.3
20260904151705 75 322 3.0 8.0 0.00 0.00 0.00 70 1011.5
20260904150204 75 215 2.0 9.0 0.00 0.00 0.00 72 1011.5
20260904145704 75 279 2.0 10.0 0.00 0.00 0.00 72 1011.5
20260904145204 75 202 2.0 7.0 0.00 0.00 0.00 72 1011.5
20260904144204 74 282 2.0 3.0 0.00 0.00 0.00 73 1011.4
20260904143704 74 245 2.0 8.0 0.00 0.00 0.00 72 1011.3
20260904140703 74 295 3.0 8.0 0.00 0.00 0.00 75 1011.4
20260904135704 73 246 1.0 3.0 0.00 0.00 0.00 76 1011.3
20260904135204 73 260 1.0 3.0 0.00 0.00 0.00 77 1011.3
20260904134704 73 256 2.0 3.0 0.00 0.00 0.00 77 1011.3
20260904133204 73 313 2.0 7.0 0.00 0.00 0.00 78 1011.4
20260904132704 72 220 2.0 6.0 0.00 0.00 0.00 79 1011.4
20260904132204 72 291 3.0 6.0 0.00 0.00 0.00 80 1011.5
20260904131703 72 280 2.0 6.0 0.00 0.00 0.00 83 1011.6
20260904131204 72 316 1.0 3.0 0.00 0.00 0.00 86 1011.5
20260904130704 71 323 1.0 3.0 0.00 0.00 0.00 88 1011.4
20260904125203 69 305 0.0 3.0 0.00 0.00 0.00 91 1011.5
20260904124204 68 303 0.0 0.0 0.00 0.00 0.00 91 1011.5
20260904123704 68 303 0.0 0.0 0.00 0.00 0.00 91 1011.5
20260904123204 68 303 0.0 0.0 0.00 0.00 0.00 91 1011.5
20260904122704 68 303 0.0 0.0 0.00 0.00 0.00 91 1011.4
20260904121704 67 303 0.0 0.0 0.00 0.00 0.00 92 1011.4
20260904121205 67 303 0.0 0.0 0.00 0.00 0.00 92 1011.4
20260904120704 67 303 0.0 0.0 0.00 0.00 0.00 91 1011.4
20260904115204 66 303 0.0 0.0 0.00 0.00 0.00 91 1011.3
20260904114704 66 303 0.0 0.0 0.00 0.00 0.00 91 1011.2
20260904114204 66 303 0.0 0.0 0.00 0.00 0.00 91 1011.3
20260904113204 66 303 0.0 0.0 0.00 0.00 0.00 91 1011.2
20260904112704 66 303 0.0 1.0 0.00 0.01 0.00 91 1011.1
20260904110704 65 303 0.0 0.0 0.00 0.01 0.00 91 1010.9
20260904105704 65 303 0.0 0.0 0.00 0.01 0.00 91 1010.9
20260904105204 65 303 0.0 0.0 0.00 0.01 0.00 91 1010.8
20260904104704 65 303 0.0 0.0 0.00 0.01 0.00 91 1010.6
20260904104204 65 303 0.0 0.0 0.00 0.01 0.00 91 1010.5
20260904103706 65 303 0.0 0.0 0.00 0.01 0.00 91 1010.5
20260904101204 66 303 0.0 0.0 0.00 0.01 0.00 91 1010.6
20260904100704 67 303 0.0 0.0 0.00 0.01 0.00 91 1010.5
20260904100204 67 303 0.0 0.0 0.00 0.01 0.00 91 1010.5
20260904095204 67 303 0.0 1.0 0.00 0.01 0.00 91 1010.5
20260904094705 67 303 0.0 0.0 0.00 0.01 0.00 91 1010.5
20260904094204 67 303 0.0 0.0 0.00 0.01 0.00 91 1010.3
20260904093704 67 303 0.0 0.0 0.00 0.01 0.00 91 1010.3
20260904093204 68 303 0.0 0.0 0.00 0.01 0.00 91 1010.3
20260904092704 68 303 0.0 0.0 0.00 0.01 0.00 91 1010.3
20260904091703 68 303 1.0 2.0 0.00 0.01 0.00 91 1010.3
20260904091204 68 303 0.0 0.0 0.00 0.01 0.00 91 1010.3
20260904090704 68 303 0.0 1.0 0.00 0.01 0.00 91 1010.3
20260904090204 68 303 0.0 1.0 0.00 0.01 0.00 91 1010.3
20260904085704 68 303 0.0 0.0 0.00 0.01 0.00 91 1010.2
20260904085204 68 303 0.0 1.0 0.00 0.01 0.00 91 1010.4
20260904084704 68 303 0.0 1.0 0.00 0.01 0.00 91 1010.2
20260904084205 68 303 0.0 0.0 0.00 0.01 0.00 91 1010.1
20260904083705 68 303 0.0 0.0 0.00 0.01 0.00 91 1010.0
20260904083204 68 303 0.0 0.0 0.00 0.01 0.00 91 1009.8
20260904082704 68 303 0.0 1.0 0.00 0.01 0.00 91 1009.8
20260904082205 68 303 0.0 0.0 0.00 0.01 0.00 91 1009.8
20260904081704 68 303 0.0 0.0 0.00 0.01 0.00 91 1009.8
20260904081205 68 303 0.0 0.0 0.00 0.01 0.00 91 1009.8
20260904080205 68 303 0.0 1.0 0.00 0.01 0.00 91 1009.8
20260904075705 68 303 1.0 2.0 0.00 0.01 0.00 91 1009.9
20260904074704 68 303 0.0 0.0 0.00 0.01 0.00 91 1009.9
20260904074205 69 303 0.0 1.0 0.00 0.01 0.00 91 1009.9
20260904073705 69 303 0.0 0.0 0.00 0.01 0.00 91 1010.0
20260904073205 69 303 0.0 1.0 0.00 0.01 0.00 91 1010.0
20260904072705 69 303 1.0 2.0 0.00 0.01 0.00 91 1010.1
20260904072204 69 303 0.0 1.0 0.00 0.01 0.00 91 1010.1
20260904071705 69 303 0.0 0.0 0.00 0.01 0.00 91 1010.1
20260904071207 69 303 0.0 0.0 0.00 0.01 0.00 91 1010.1
20260904070204 69 303 0.0 0.0 0.00 0.01 0.00 91 1010.3
20260904065703 69 303 0.0 0.0 0.00 0.01 0.00 91 1010.5
20260904064204 69 303 0.0 0.0 0.00 0.01 0.00 91 1010.7
20260904063704 69 303 0.0 0.0 0.00 0.01 0.00 91 1010.7
20260904062704 69 303 0.0 0.0 0.00 0.01 0.00 91 1010.8
20260904062204 69 303 0.0 0.0 0.00 0.01 0.00 91 1010.8
20260904061703 69 303 0.0 1.0 0.00 0.01 0.00 91 1011.0
20260904061204 69 303 0.0 0.0 0.00 0.01 0.00 91 1010.9
20260904060704 69 303 0.0 0.0 0.00 0.01 0.00 91 1010.8
20260904060204 69 303 0.0 0.0 0.00 0.01 0.00 91 1010.9
20260904055704 69 303 0.0 0.0 0.00 0.01 0.00 91 1011.0
20260904055204 69 303 0.0 0.0 0.00 0.01 0.00 91 1011.0
20260904054704 69 303 0.0 0.0 0.00 0.02 0.00 91 1010.9
20260904054204 69 303 0.0 0.0 0.00 0.02 0.00 91 1010.8
20260904053704 69 303 0.0 0.0 0.00 0.03 0.00 91 1011.0
20260904052704 69 303 0.0 0.0 0.00 0.06 0.00 90 1011.0
20260904052204 69 303 0.0 0.0 0.00 0.07 0.00 90 1011.0
20260904051704 69 303 0.0 0.0 0.00 0.08 0.00 90 1011.1
20260904051204 69 303 0.0 0.0 0.00 0.09 0.00 90 1011.0
20260904050704 69 303 0.0 0.0 0.00 0.10 0.00 90 1011.1
20260904050204 69 303 0.0 0.0 0.00 0.10 0.00 90 1011.2
20260904045704 69 303 0.0 0.0 0.00 0.11 0.00 90 1011.3
20260904045204 69 303 0.0 0.0 0.00 0.12 0.00 90 1011.4
20260904044704 69 303 0.0 0.0 0.00 0.14 0.00 90 1011.4
20260904044204 69 303 0.0 1.0 0.00 0.16 0.00 90 1011.4
20260904043704 69 303 1.0 2.0 0.00 0.18 0.00 90 1011.5
20260904042704 70 303 0.0 0.0 0.00 0.19 0.00 90 1011.6
20260904041704 69 303 0.0 0.0 0.00 0.19 0.00 90 1011.6
20260904041204 69 303 0.0 0.0 0.00 0.19 0.00 90 1011.6
20260904040704 69 303 0.0 0.0 0.00 0.19 0.00 90 1011.5
20260904040204 69 303 0.0 1.0 0.00 0.19 0.00 90 1011.6
20260904035704 69 303 0.0 2.0 0.00 0.19 0.19 90 1011.7
20260904035204 69 303 1.0 3.0 0.00 0.19 0.19 90 1011.7
20260904034703 69 302 0.0 2.0 0.00 0.19 0.19 90 1011.7
20260904034205 69 302 0.0 0.0 0.00 0.19 0.19 90 1011.8
20260904033704 69 302 0.0 0.0 0.00 0.19 0.19 90 1011.7
20260904033204 69 302 0.0 0.0 0.00 0.19 0.19 90 1011.7
20260904032704 69 302 0.0 0.0 0.00 0.19 0.19 90 1011.8
20260904032203 69 302 0.0 0.0 0.00 0.19 0.19 90 1011.8
20260904031705 69 302 0.0 0.0 0.00 0.19 0.19 90 1011.9
20260904031205 69 302 0.0 0.0 0.00 0.19 0.19 90 1011.8
20260904030204 69 302 0.0 0.0 0.00 0.19 0.19 90 1011.8
20260904025704 69 302 0.0 0.0 0.00 0.19 0.19 90 1011.8
20260904025204 70 302 0.0 0.0 0.00 0.19 0.19 90 1011.8
20260904024704 70 302 0.0 0.0 0.00 0.19 0.19 90 1012.1
20260904024204 70 302 0.0 0.0 0.00 0.19 0.19 90 1012.2
20260904023704 69 302 0.0 0.0 0.00 0.19 0.19 90 1012.2
20260904023204 69 302 0.0 0.0 0.00 0.19 0.19 90 1012.2
20260904022203 69 302 0.0 0.0 0.00 0.19 0.19 90 1012.2
20260904021703 69 302 0.0 0.0 0.00 0.19 0.19 90 1012.3
20260904021204 69 302 0.0 0.0 0.00 0.19 0.19 90 1012.4
20260904020204 69 302 0.0 0.0 0.00 0.19 0.19 89 1012.2
20260904015704 69 302 0.0 0.0 0.00 0.19 0.19 89 1012.2
20260904015203 69 302 0.0 0.0 0.00 0.19 0.19 89 1012.3
20260904014704 69 302 0.0 0.0 0.00 0.19 0.19 89 1012.3
20260904014204 69 302 0.0 0.0 0.00 0.19 0.19 89 1012.4
20260904013204 70 302 0.0 0.0 0.00 0.19 0.19 89 1012.3
20260904012204 70 302 0.0 0.0 0.00 0.19 0.19 89 1012.4
20260904011704 70 302 0.0 0.0 0.00 0.19 0.19 89 1012.4
20260904011204 70 302 0.0 0.0 0.00 0.19 0.19 88 1012.4
20260904010204 71 302 0.0 0.0 0.00 0.19 0.19 88 1012.3
20260904005704 71 302 0.0 0.0 0.00 0.19 0.19 88 1012.2
20260904004704 71 302 0.0 0.0 0.00 0.19 0.19 88 1012.0
20260904004204 71 302 0.0 0.0 0.00 0.19 0.19 88 1012.0
20260904003704 71 302 0.0 0.0 0.00 0.19 0.19 88 1012.0
20260904003204 71 302 0.0 0.0 0.00 0.19 0.19 88 1012.1
20260904002704 72 302 0.0 0.0 0.00 0.19 0.19 88 1012.1
20260904002204 72 302 0.0 0.0 0.00 0.19 0.19 88 1012.0
20260904001704 72 302 0.0 0.0 0.00 0.19 0.19 87 1012.2
20260904001203 72 302 0.0 0.0 0.00 0.19 0.19 87 1012.3
20260904000704 72 302 0.0 0.0 0.00 0.19 0.19 87 1012.1
20260903235704 72 302 0.0 0.0 0.00 0.19 0.19 87 1011.7
20260903235204 73 302 0.0 0.0 0.00 0.19 0.19 87 1011.6
20260903234704 73 302 0.0 0.0 0.00 0.19 0.19 87 1011.6
20260903234204 73 302 0.0 0.0 0.00 0.19 0.19 86 1011.5
20260903233205 74 302 0.0 0.0 0.00 0.19 0.19 86 1011.4
20260903232704 74 302 0.0 0.0 0.00 0.19 0.19 86 1011.4
20260903232205 74 302 0.0 0.0 0.00 0.19 0.19 85 1011.4
20260903231703 75 302 0.0 0.0 0.00 0.19 0.19 85 1011.4
20260903231204 75 302 0.0 0.0 0.00 0.19 0.19 85 1011.6
20260903230704 75 302 0.0 0.0 0.00 0.19 0.19 85 1011.6
20260903230204 75 302 0.0 0.0 0.00 0.19 0.19 84 1011.5
20260903225704 76 302 0.0 0.0 0.00 0.19 0.19 84 1011.6
20260903225204 76 302 0.0 0.0 0.00 0.19 0.19 84 1011.3
20260903224704 76 302 0.0 0.0 0.00 0.19 0.19 84 1011.3
20260903223704 77 302 0.0 0.0 0.00 0.19 0.19 83 1011.2
20260903223204 77 302 0.0 0.0 0.00 0.19 0.19 82 1011.2
20260903222704 77 302 0.0 0.0 0.00 0.19 0.19 82 1011.1
20260903222204 78 302 0.0 0.0 0.00 0.19 0.19 81 1011.1
20260903221204 79 302 0.0 3.0 0.00 0.19 0.19 76 1011.3
20260903220704 80 305 1.0 2.0 0.00 0.19 0.19 75 1011.3
20260903220204 80 305 1.0 2.0 0.00 0.19 0.19 74 1011.3
20260903215704 80 305 1.0 2.0 0.00 0.19 0.19 73 1011.3
20260903215205 81 305 1.0 3.0 0.00 0.19 0.19 73 1011.3
20260903214704 81 314 1.0 2.0 0.00 0.19 0.19 72 1011.3
20260903213704 81 314 2.0 5.0 0.00 0.19 0.19 72 1011.3
20260903213204 81 309 1.0 3.0 0.00 0.19 0.19 72 1011.3
20260903212204 81 325 2.0 3.0 0.00 0.19 0.19 71 1011.3
20260903211204 82 329 1.0 3.0 0.00 0.19 0.19 71 1011.2
20260903210704 82 321 1.0 3.0 0.00 0.19 0.19 70 1011.5
20260903210204 83 322 1.0 3.0 0.00 0.19 0.19 73 1011.4
20260903205704 83 237 1.0 3.0 0.00 0.19 0.19 71 1011.5
20260903205204 82 226 0.0 3.0 0.00 0.19 0.19 71 1011.5
20260903204704 82 265 1.0 3.0 0.00 0.19 0.19 69 1011.5
20260903204204 83 207 2.0 3.0 0.00 0.19 0.19 69 1011.4
20260903203703 83 252 2.0 3.0 0.00 0.19 0.19 71 1011.4
20260903203205 82 320 2.0 3.0 0.00 0.19 0.19 71 1011.4
20260903202704 82 220 1.0 2.0 0.00 0.19 0.19 70 1011.4
20260903202204 82 219 2.0 3.0 0.00 0.19 0.19 70 1011.3
20260903201704 82 260 1.0 3.0 0.00 0.19 0.19 73 1011.4
20260903201204 81 268 1.0 2.0 0.00 0.19 0.19 74 1011.4
20260903200704 80 268 1.0 3.0 0.00 0.19 0.19 74 1011.4
20260903200204 80 269 0.0 2.0 0.00 0.19 0.19 76 1011.4
20260903195704 79 269 0.0 2.0 0.00 0.19 0.19 76 1011.5
20260903195204 80 269 2.0 3.0 0.00 0.19 0.19 74 1011.4
20260903194706 80 269 1.0 2.0 0.00 0.19 0.19 75 1011.5
20260903194204 80 269 0.0 2.0 0.00 0.19 0.19 75 1011.5
20260903193704 81 269 0.0 3.0 0.00 0.19 0.19 74 1011.6
20260903193204 81 246 1.0 3.0 0.00 0.19 0.19 74 1011.7
20260903192704 80 232 0.0 1.0 0.00 0.19 0.19 75 1011.7
20260903192204 80 232 1.0 2.0 0.00 0.19 0.19 73 1011.8
20260903191704 81 232 2.0 3.0 0.00 0.19 0.19 73 1011.9
20260903190704 82 232 1.0 2.0 0.00 0.19 0.19 72 1011.9
20260903190204 81 232 1.0 3.0 0.00 0.19 0.19 74 1012.0
20260903185204 81 318 2.0 5.0 0.00 0.19 0.19 74 1012.0
20260903184704 80 249 1.0 3.0 0.00 0.19 0.19 75 1012.1
20260903183703 80 280 2.0 3.0 0.00 0.19 0.19 76 1012.2
20260903183204 79 237 2.0 6.0 0.00 0.19 0.19 76 1012.2
20260903182704 79 214 2.0 5.0 0.00 0.19 0.19 76 1012.4
20260903182204 79 178 2.0 5.0 0.00 0.19 0.19 76 1012.3
20260903181704 79 203 2.0 3.0 0.00 0.19 0.19 76 1012.4
20260903181204 79 280 1.0 3.0 0.00 0.19 0.19 77 1012.3
20260903180704 79 257 1.0 6.0 0.00 0.19 0.19 76 1012.3
20260903180204 79 240 1.0 3.0 0.00 0.19 0.19 75 1012.3
20260903175704 79 255 3.0 3.0 0.00 0.19 0.19 76 1012.5
20260903175204 79 249 0.0 3.0 0.00 0.19 0.19 77 1012.4
20260903174704 79 224 2.0 3.0 0.00 0.19 0.19 76 1012.4
20260903174204 79 222 2.0 6.0 0.00 0.19 0.19 76 1012.5
20260903173704 79 251 2.0 7.0 0.00 0.19 0.19 75 1012.5
20260903173204 80 225 2.0 3.0 0.00 0.19 0.19 74 1012.5
20260903172204 79 213 2.0 3.0 0.00 0.19 0.19 76 1012.7
20260903171704 78 239 1.0 3.0 0.00 0.19 0.19 77 1012.7
20260903171203 77 239 1.0 3.0 0.00 0.19 0.19 78 1012.8
20260903170705 77 236 1.0 3.0 0.00 0.19 0.19 79 1012.9
20260903170204 77 242 1.0 2.0 0.00 0.19 0.19 78 1012.9
20260903165704 77 242 1.0 3.0 0.00 0.19 0.19 78 1012.9
20260903164704 78 244 1.0 3.0 0.00 0.19 0.19 76 1012.9
20260903164204 78 243 2.0 5.0 0.00 0.19 0.19 76 1012.8